Powrót do katalogu

DELTA 1 R/B

AktywnyLEO
NORAD 7735·ROCKET BODY·🇺🇸 United States

Wystrzelony Apr 9, 1975 z Vandenberg Space Force Base

Loading…

Następne Przeloty (najbliższe 24 godziny)

TLE

ŚwieżeSource: Space-Track

Epoka: Sep 14, 2026, 06:34 UTC

1 07735U 75027B   26257.27377892 -.00000063  00000-0  48032-4 0  9991
2 07735 114.9725 180.1430 0051329 237.2654 122.3473 14.25620773671170

Śledź DELTA 1 R/B w czasie rzeczywistym z AllMySat

Download on the App Store